Content
SEND FEEDBACK

Daily
Averages
Monthly
Summary
Brazil

TERESINA, PIAUI


Home > South America > Brazil > Piaui
Elevation: 328 feet     Latitude: 05 03S     Longitude: 042 48W

WEATHER
 
SELECT A DAY
Number of Records: 166,781;   Date Range: 6/30/96 - 10/24/14
 
SHARE

PRINT THIS DATA

[ ← Previous Day ]
WEATHER ALMANAC - JANUARY 18, 2013
[ Next Day → ]
[ °C ]   °F
Weather ElementAverageHighLow
Temperature85.5 °F93.2 °F (12:00 pm)78.8 °F (2:00 am)
Dewpoint74.9 °F78.8 °F (8:00 pm)71.6 °F (11:00 am)
Humidity71.5 %94 % (2:00 am)46 % (3:00 pm)
Barometer29.83 in29.92 in (9:00 am)29.77 in (3:00 pm)
Wind Speed2.1 mph6.9 mph (11:00 am)
Weather ElementAverage
Visibility7.3 mi
Wind DirectionESE (124 °)

Weather ElementTotal
Precipitation---
Cooling Degree Days21 (Base 65)
Growing Degree Days36 (Base 50)
Averaged from 27 records on January 18, 2013
WEATHER CONDITIONS BREAKOUT
WIND DIRECTION BREAKOUT
WEATHER BY HOUR - JANUARY 18, 2013
[ °C ]   °F
Local TimeTemperatureDewpointHumidityBarometerVisibilityWind DirectionWind SpeedGust SpeedPrecipitationEventsConditions
1:00 AM80.6 °F77.0 °F89 %29.83 in6.2 miCalmMostly Cloudy
2:00 AM78.8 °F77.0 °F94 %29.83 in6.2 miCalmMostly Cloudy
3:00 AM79.0 °F76.0 °F89 %29.83 in12.0 miCalmMostly Cloudy
3:00 AM78.8 °F77.0 °F94 %29.83 in6.2 miCalmMostly Cloudy
4:00 AM78.8 °F77.0 °F94 %29.83 in6.2 miCalmMostly Cloudy
5:00 AM78.8 °F75.2 °F89 %29.83 in6.2 miCalmMostly Cloudy
6:00 AM78.8 °F75.2 °F89 %29.86 inCalmClear
7:00 AM78.8 °F77.0 °F94 %29.89 inCalmClear
8:00 AM80.6 °F75.2 °F84 %29.89 inCalmClear
9:00 AM84.0 °F75.0 °F67 %29.91 in12.0 miENE (60°)2.3 mphScattered Clouds
9:00 AM84.2 °F75.2 °F74 %29.92 in6.2 miENE (60°)2.3 mphPartly Cloudy
10:00 AM87.8 °F73.4 °F62 %29.92 in6.2 miCalmMostly Cloudy
11:00 AM89.6 °F71.6 °F55 %29.89 in6.2 miEast (100°)6.9 mphMostly Cloudy
12:00 PM93.2 °F71.6 °F49 %29.86 in6.2 miNNE (20°)3.5 mphMostly Cloudy
1:00 PM91.4 °F71.6 °F52 %29.83 in6.2 miNNE (20°)4.6 mphMostly Cloudy
2:00 PM91.4 °F71.6 °F52 %29.80 in6.2 miNNE (20°)3.5 mphMostly Cloudy
3:00 PM93.0 °F74.0 °F46 %29.78 in12.0 miWNW (300°)5.8 mphPartly Cloudy
3:00 PM93.2 °F75.2 °F56 %29.77 in6.2 miWNW (300°)5.8 mphScattered Clouds
4:00 PM93.2 °F71.6 °F49 %29.77 in6.2 miNW (320°)5.8 mphPartly Cloudy
5:00 PM93.2 °F73.4 °F52 %29.77 in6.2 miNW (320°)3.5 mphPartly Cloudy
6:00 PM89.6 °F73.4 °F59 %29.77 in6.2 miNW (320°)1.2 mphPartly Cloudy
7:00 PM87.8 °F75.2 °F66 %29.77 inNNW (330°)2.3 mphClear
8:00 PM86.0 °F78.8 °F79 %29.77 inWest (270°)1.2 mphClear
9:00 PM85.0 °F77.0 °F70 %29.82 in12.0 miCalmMostly Cloudy
9:00 PM86.0 °F77.0 °F74 %29.83 in6.2 miCalmMostly Cloudy
10:00 PM84.2 °F75.2 °F74 %29.86 in6.2 miNNW (330°)2.3 mphPartly Cloudy
11:00 PM82.4 °F75.2 °F79 %29.83 inNNW (330°)6.9 mphClear
Hourly data recorded from SBTE, located miles away from Teresina, Piaui







STORIES FROM OUR PARTNERS